Weather History for Hutchinson, KS

Change the Weather History Date:

Thursday, January 17, 2013

  Actual Average Record
Temperature  
Mean Temperature 40 °F -  
Max Temperature 55 °F 41 °F 55 °F (2009)
Min Temperature 25 °F 17 °F 3 °F (1997)
Degree Days  
Heating Degree Days 25    
Moisture  
Dew Point 25 °F    
Average Humidity 63    
Maximum Humidity 88    
Minimum Humidity 34    
Precipitation  
Precipitation 0.00 in - - ()
Sea Level Pressure  
Sea Level Pressure 30.42 in    
Wind  
Wind Speed 7 mph (WNW)    
Max Wind Speed 12 mph    
Max Gust Speed -    
Visibility 10 miles    
Events      
Averages and records for this station are not official NWS values.
T = Trace of Precipitation, MM = Missing Value Source: NWS Daily Summary

Daily Weather History Graph

Daily Weather History Graph

Search for Another Location

Airport:

Trip Planner

Search our weather history database for the weather conditions in past years. The results will help you decide how hot, cold, wet, or windy it might be!

Date:

Astronomy

Jan. 17, 2013 Rise Set
Actual Time 7:45 AM CST 5:38 PM CST
Civil Twilight 7:16 AM CST 6:06 PM CST
Nautical Twilight 6:44 AM CST 6:39 PM CST
Astronomical Twilight 6:13 AM CST 7:10 PM CST
Moon 11:00 AM CST (1/17) No Moon Set
Length of Visible Light 10h 50m
Length of Day
9h 52m
Waxing Crescent, 38% of the Moon is Illuminated
Jan 17
Waxing Crescent
Jan 18
First Quarter
Jan 26
Full
Feb 3
Last Quarter
Feb 10
New

Hourly Weather History & Observations

Time (CST) Temp. Windchill Dew Point Humidity Pressure Visibility Wind Dir Wind Speed Gust Speed Precip Events Conditions
12:52 AM 33.1 °F 26.9 °F 24.1 °F 70% 30.29 in 10.0 mi WNW 6.9 mph - N/A   Clear
1:52 AM 34.0 °F 27.2 °F 25.0 °F 70% 30.32 in 10.0 mi NNW 8.1 mph - N/A   Clear
2:52 AM 34.0 °F 26.6 °F 26.1 °F 73% 30.35 in 10.0 mi NNW 9.2 mph - N/A   Clear
3:52 AM 27.0 °F 18.0 °F 21.9 °F 81% 30.38 in 10.0 mi NW 9.2 mph - N/A   Clear
4:52 AM 25.0 °F 18.1 °F 21.0 °F 85% 30.39 in 10.0 mi NNW 5.8 mph - N/A   Clear
5:52 AM 25.0 °F 17.1 °F 21.0 °F 85% 30.42 in 10.0 mi NW 6.9 mph - N/A   Clear
6:52 AM 25.0 °F 19.3 °F 21.9 °F 88% 30.44 in 10.0 mi NW 4.6 mph - N/A   Clear
7:52 AM 25.0 °F 18.1 °F 21.0 °F 85% 30.47 in 10.0 mi NW 5.8 mph - N/A   Clear
8:52 AM 30.9 °F 25.2 °F 25.0 °F 79% 30.48 in 10.0 mi NW 5.8 mph - N/A   Clear
9:52 AM 37.9 °F 33.5 °F 28.0 °F 68% 30.50 in 10.0 mi WNW 5.8 mph - N/A   Clear
10:52 AM 46.0 °F 42.5 °F 30.0 °F 54% 30.51 in 10.0 mi WNW 6.9 mph - N/A   Clear
11:52 AM 48.9 °F - 28.9 °F 46% 30.48 in 10.0 mi WNW 11.5 mph - N/A   Clear
12:52 PM 52.0 °F - 28.9 °F 41% 30.45 in 10.0 mi NW 8.1 mph - N/A   Clear
1:52 PM 55.0 °F - 28.0 °F 35% 30.43 in 10.0 mi WNW 9.2 mph - N/A   Clear
2:52 PM 55.0 °F - 27.0 °F 34% 30.40 in 10.0 mi WNW 8.1 mph - N/A   Clear
3:52 PM 55.0 °F - 27.0 °F 34% 30.41 in 10.0 mi West 4.6 mph - N/A   Clear
4:52 PM 54.0 °F - 26.1 °F 34% 30.43 in 10.0 mi WSW 4.6 mph - N/A   Clear
5:52 PM 45.0 °F - 25.0 °F 46% 30.44 in 10.0 mi Calm Calm - N/A   Clear
6:52 PM 37.0 °F 34.5 °F 24.1 °F 59% 30.45 in 10.0 mi ESE 3.5 mph - N/A   Clear
7:52 PM 33.1 °F - 23.0 °F 66% 30.45 in 10.0 mi Calm Calm - N/A   Clear
8:52 PM 32.0 °F 28.7 °F 24.1 °F 73% 30.43 in 10.0 mi South 3.5 mph - N/A   Clear
9:52 PM 36.0 °F 30.3 °F 26.1 °F 67% 30.41 in 10.0 mi South 6.9 mph - N/A   Clear
10:52 PM 32.0 °F 27.5 °F 25.0 °F 75% 30.39 in 10.0 mi South 4.6 mph - N/A   Clear
11:52 PM 30.9 °F 26.2 °F 24.1 °F 76% 30.39 in 10.0 mi South 4.6 mph - N/A   Clear